This is the latest recevied weather packets stored in our database for station/object KC9Q. If no packets are shown the sender has not sent any weather packets the latest 10 day(s).
| Time | Temp. | Humidity | Pressure | Rain* | Wind** | Luminosity | Snow |
|---|---|---|---|---|---|---|---|
| 1777919395 | 26.67° C | 35% | 1008.4 hPa | 0 mm | - | 926 W/m² | - |
| 1777919092 | 26.67° C | 35% | 1008.1 hPa | 0 mm | - | 938 W/m² | - |
| 1777918789 | 26.67° C | 34% | 1008.5 hPa | 0 mm | - | 937 W/m² | - |
| 1777918486 | 26.67° C | 35% | 1008.4 hPa | 0 mm | - | 926 W/m² | - |
| 1777918185 | 26.67° C | 35% | 1008.5 hPa | 0 mm | - | 937 W/m² | - |
| 1777917883 | 26.67° C | 35% | 1008.8 hPa | 0 mm | - | 925 W/m² | - |
| 1777917581 | 26.67° C | 35% | 1008.6 hPa | 0 mm | - | 946 W/m² | - |
| 1777917278 | 26.67° C | 34% | 1008.7 hPa | 0 mm | - | 930 W/m² | - |
| 1777916976 | 26.67° C | 34% | 1008.8 hPa | 0 mm | - | 950 W/m² | - |
| 1777916673 | 26.11° C | 36% | 1009 hPa | 0 mm | - | 951 W/m² | - |
| 1777916370 | 26.11° C | 34% | 1008.9 hPa | 0 mm | - | 955 W/m² | - |
| 1777916066 | 26.11° C | 35% | 1009.1 hPa | 0 mm | - | 953 W/m² | - |
| 1777915764 | 26.11° C | 35% | 1009.2 hPa | 0 mm | - | 942 W/m² | - |
| 1777915460 | 26.67° C | 35% | 1009 hPa | 0 mm | - | 974 W/m² | - |
| 1777915156 | 26.11° C | 36% | 1009.1 hPa | 0 mm | - | 963 W/m² | - |
| 1777914854 | 26.11° C | 37% | 1009.3 hPa | 0 mm | - | 963 W/m² | - |
| 1777914551 | 26.11° C | 37% | 1009.4 hPa | 0 mm | - | 959 W/m² | - |
| 1777914247 | 26.11° C | 37% | 1009.1 hPa | 0 mm | - | 944 W/m² | - |
| 1777913944 | 26.11° C | 37% | 1009.3 hPa | 0 mm | - | 955 W/m² | - |
| 1777913640 | 26.11° C | 39% | 1009.4 hPa | 0 mm | - | 954 W/m² | - |
| 1777913337 | 26.11° C | 39% | 1009.4 hPa | 0 mm | - | 954 W/m² | - |
| 1777913034 | 25.56° C | 39% | 1009.5 hPa | 0 mm | - | 945 W/m² | - |
| 1777912729 | 25.56° C | 38% | 1009.7 hPa | 0 mm | - | 949 W/m² | - |
| 1777912426 | 25.56° C | 37% | 1009.7 hPa | 0 mm | - | 933 W/m² | - |
| 1777912122 | 25.56° C | 38% | 1009.7 hPa | 0 mm | - | 932 W/m² | - |
* Rain latest hour (hover to see other rain measurements)
** Current wind speed in m/s (hover to see current wind gust speed)